IRNSS-1F

Last updated on Sun Jun 21 2026 00:03:06 GMT+0000 (Coordinated Universal Time)

1 41384U 16015A 26170.97063664 .00000151 00000+0 00000+0 0 9995 2 41384 5.3558 96.7185 0017430 184.9553 8.3745 1.00268822 37695
UTC large
Height (km)
Speed (km/s)
/
Latitude / Longitude
Inclination (degrees)
Orbital Period (minutes)
Azimuth
Elevation
Range (km)
Doppler Factor

Next 0 passes for location: London (51.5072 / 0.1276)

No passes found over London.
IRNSS-1F